This demonstration page uses our WeatherBlox Daily Observations layout. Learn more.

Left ArrowRight Arrow

Hourly Observations for January 30, 2022

Temp ( °F °C ) Dew Point ( °F °C ) Humidity (%) Winds ( mph kmh ) Pressure ( in mb ) Visibility ( mi km ) Precip ( " mm )
12:53 am 00:53 Clear 49 9.4 22 -5.6 35 35 SW 8 13 30.11 1020 10 16 0.00 0.00
1:53 am 01:53 Clear 47 8.3 22 -5.6 37 37 SW 6 9 30.10 1019 10 16 0.00 0.00
2:53 am 02:53 Clear 46 7.8 22 -5.6 38 38 SW 3 6 30.09 1019 10 16 0.00 0.00
3:53 am 03:53 Clear 45 7.2 23 -5 42 42 SW 6 9 30.10 1019 10 16 0.00 0.00
4:53 am 04:53 Clear 43 6.1 23 -5 45 45 SW 6 9 30.10 1019 10 16 0.00 0.00
5:53 am 05:53 Clear 42 5.6 22 -5.6 45 45 WSW 3 6 30.10 1019 10 16 0.00 0.00
6:53 am 06:53 Clear 39 3.9 22 -5.6 50 50 Calm 30.11 1020 10 16 0.00 0.00
7:53 am 07:53 Mostly Sunny 40 4.4 24 -4.4 53 53 Calm 30.12 1020 10 16 0.00 0.00
8:53 am 08:53 Sunny 47 8.3 24 -4.4 41 41 SW 5 7 30.14 1021 10 16 0.00 0.00
9:53 am 09:53 Mostly Sunny 52 11.1 24 -4.4 34 34 WSW 5 7 30.14 1021 10 16 0.00 0.00
10:53 am 10:53 Mostly Sunny 58 14.4 24 -4.4 27 27 W 8 13 30.14 1021 10 16 0.00 0.00
11:53 am 11:53 Mostly Sunny 63 17.2 24 -4.4 23 23 W 9 15 30.13 1020 10 16 0.00 0.00
12:53 pm 12:53 Partly Cloudy 65 18.3 25 -3.9 22 22 Calm 30.09 1019 10 16 0.00 0.00
1:53 pm 13:53 Mostly Cloudy 69 20.6 24 -4.4 18 18 SSW 6 9 30.05 1018 10 16 0.00 0.00
2:53 pm 14:53 Mostly Cloudy 68 20 23 -5 18 18 SW 7 11 30.03 1017 10 16 0.00 0.00
3:53 pm 15:53 Mostly Cloudy 69 20.6 22 -5.6 17 17 SSW 6 9 30.02 1017 10 16 0.00 0.00
4:53 pm 16:53 Mostly Cloudy 68 20 22 -5.6 17 17 Calm 30.01 1016 10 16 0.00 0.00
5:53 pm 17:53 Mostly Cloudy 67 19.4 21 -6.1 17 17 S 7 11 30.01 1016 10 16 0.00 0.00
6:53 pm 18:53 Mostly Cloudy 65 18.3 22 -5.6 19 19 S 9 15 30.02 1017 10 16 0.00 0.00
7:53 pm 19:53 Mostly Cloudy 63 17.2 26 -3.3 25 25 S 8 13 30.04 1017 10 16 0.00 0.00
8:53 pm 20:53 Mostly Cloudy 60 15.6 28 -2.2 30 30 SSE 7 11 30.03 1017 10 16 0.00 0.00
9:53 pm 21:53 Mostly Cloudy 59 15 30 -1.1 33 33 S 9 15 30.03 1017 10 16 0.00 0.00
10:53 pm 22:53 Mostly Cloudy 58 14.4 30 -1.1 35 35 S 8 13 30.03 1017 10 16 0.00 0.00
11:53 pm 23:53 Mostly Cloudy 57 13.9 30 -1.1 36 36 S 6 9 30.04 1017 10 16 0.00 0.00

Powered by AerisWeather